{"data":{"norad_id":67710,"epoch":"2026-05-24T20:22:14.685312Z","epoch_age_seconds":78180,"freshness":"FRESH","line1":"1 67710U 26025T   26144.84878108  .00025276  00000+0  78231-3 0  9992","line2":"2 67710  97.2819 256.4595 0000282 151.3143 208.8116 15.33458260 17691","mean_motion":15.3345826,"eccentricity":2.82e-5,"inclination_deg":97.2819,"raan_deg":256.4595,"arg_perigee_deg":151.3143,"mean_anomaly_deg":208.8116,"bstar":0.00078231,"rev_number":1769,"period_min":93.905392638467,"perigee_km":465.31073166326,"apogee_km":465.696713,"semimajor_km":6843.6407223316,"source":"CELESTRAK","updated_at":"2026-05-25T13:38:21.682934Z"}}